Temperature
19 19 18 16 16 16 16 15 15 15 14 14 14 14 13 13 13 13 13 12 12 13 13 12 12 13 13 13 13 13 13 13 13 13 14 14 15 14 13 13 13 13 13
20 20 19 17 16 16 16 15 15 15 14 14 14 13 12 12 12 12 12 12 12 13 13 13 13 13 13 13 13 13 13 13 13 14 14 14 14 14 13 12 12 13 13
20 20 19 17 16 16 16 15 15 15 14 14 14 12 12 12 12 12 12 12 12 13 14 14 14 14 13 13 13 13 13 13 13 13 14 14 14 13 13 12 12 13 13
20 20 19 17 16 16 15 15 15 15 14 14 13 12 12 12 12 12 12 12 13 14 14 15 15 14 14 13 13 13 13 13 13 13 14 14 14 14 13 12 13 14 13
20 20 19 18 16 16 15 15 15 15 14 14 13 13 12 13 13 13 13 13 13 14 14 14 14 14 14 14 13 13 13 13 14 13 13 14 14 13 12 12 12 13 14
20 19 19 18 17 16 16 15 15 15 14 14 14 13 13 13 13 13 13 13 13 13 14 14 14 14 14 14 13 13 13 14 14 14 13 13 13 13 12 11 11 13 14
20 19 18 18 18 17 16 16 15 15 14 14 14 13 13 13 13 13 13 13 13 13 14 14 14 14 14 14 14 14 14 14 14 14 14 13 13 13 12 11 11 11 12
19 19 18 18 18 17 16 16 16 15 14 14 14 14 14 14 13 14 13 13 14 14 14 14 14 14 14 15 15 15 15 15 14 14 14 14 14 13 13 12 11 11 12
19 19 18 19 18 17 17 17 16 15 14 14 14 14 15 14 14 14 14 14 14 14 14 15 15 14 15 14 14 14 14 14 14 14 14 14 14 13 13 13 13 12 11
19 19 18 19 19 18 17 17 16 15 15 15 15 15 16 15 14 14 14 14 14 14 14 14 14 14 14 14 14 13 13 13 13 13 13 13 13 13 13 13 12 12 12
19 19 19 19 19 18 18 17 16 16 15 15 15 15 16 16 15 15 15 15 15 14 14 14 14 14 14 13 13 12 12 12 12 12 12 12 12 12 12 12 12 12 12
20 20 19 19 19 18 18 17 16 16 15 15 15 15 15 15 15 15 14 14 14 14 14 13 13 13 13 13 13 12 12 12 12 12 12 12 12 12 12 12 12 12 12
21 20 20 19 19 18 17 17 16 15 15 15 15 15 15 14 14 13 13 13 13 13 13 13 13 12 12 12 12 12 12 12 12 12 12 12 12 12 12 12 12 12 12
21 21 20 19 19 18 17 16 15 15 14 14 14 14 14 14 13 13 13 13 13 12 12 12 12 12 12 12 12 12 12 12 12 12 11 11 12 12 12 12 12 12 12
22 21 20 19 18 17 16 15 15 14 14 14 13 13 14 13 13 13 12 12 12 12 12 12 12 12 12 13 13 13 12 12 12 12 11 11 11 11 11 11 11 11 12
21 21 20 18 17 17 16 15 14 14 13 13 13 13 13 13 13 13 12 12 12 12 12 12 12 12 12 12 13 12 12 12 12 11 11 11 11 11 11 11 11 12 12
21 21 19 18 17 16 15 14 14 13 13 13 13 13 13 13 12 12 12 12 12 12 12 12 12 12 12 12 12 11 11 11 11 10 10 10 10 10 11 11 11 11 11
20 20 18 17 16 15 15 14 14 13 13 13 13 12 12 12 12 12 12 12 12 12 12 12 12 11 11 10 10 10 10 10 10 9 9 9 10 10 10 11 11 11 11
19 18 17 17 16 15 14 13 13 13 13 13 12 12 12 12 12 12 12 12 12 11 11 11 10 9 9 9 9 9 10 9 9 9 9 9 10 10 9 9 10 10 10
17 17 17 16 15 14 14 13 12 12 12 12 12 12 12 12 12 12 12 11 11 10 10 9 9 8 8 8 8 9 9 9 9 9 9 9 9 9 9 9 9 9 10
16 17 17 16 15 14 13 12 12 12 12 12 12 12 12 12 11 11 11 10 10 9 9 8 8 8 7 7 8 8 9 9 9 9 9 8 8 8 8 8 8 8 8
15 15 15 15 14 13 13 12 12 12 12 12 12 12 11 11 11 11 10 10 9 9 8 7 7 7 7 6 6 6 6 7 7 7 7 7 6 6 6 6 6 5 5
14 14 14 14 13 13 13 12 12 12 12 12 12 11 11 11 11 10 9 9 8 8 7 7 6 6 6 6 5 4 3 2 2 4 4 5 4 4 4 4 4 3 2
13 13 13 13 13 13 12 12 12 13 12 12 12 11 11 10 10 9 9 8 8 7 6 6 6 6 6 6 5 4 3 2 1 1 2 3 3 3 2 2 2 1 1
13 13 13 13 12 12 12 13 13 12 12 12 11 11 10 10 9 9 8 8 7 6 6 5 5 5 5 5 4 3 3 2 1 -0 -1 -0 1 2 2 1 0 0 -0
13 13 12 12 12 12 12 12 12 12 12 12 11 11 10 9 9 8 8 7 6 6 5 5 5 4 4 3 3 2 1 1 0 -1 -1 -1 -2 -1 -1 -1 -1 -1 -1
Wind_Speed
6 10 16 16 16 16 16 15 14 13 11 10 9 9 11 10 8 7 7 7 8 8 7 6 8 10 11 7 6 5 4 2 4 5 5 6 6 6 7 7 4 2 5
10 11 16 16 17 16 16 16 14 13 11 10 10 10 10 8 7 7 6 6 7 6 5 5 6 6 7 6 3 2 2 1 2 3 5 6 7 8 8 7 5 4 4
12 12 16 16 16 16 17 16 14 13 12 11 10 9 8 7 7 8 7 6 5 4 4 3 4 4 3 3 2 1 1 3 1 3 5 5 8 10 10 8 6 6 6
13 13 14 16 17 17 17 15 14 13 11 10 9 6 6 6 7 9 9 8 6 4 3 1 1 2 3 4 4 4 4 4 3 5 5 6 9 9 11 10 9 8 7
11 14 15 18 18 18 17 15 14 12 10 9 8 5 3 2 3 7 10 10 9 7 4 1 1 3 4 5 6 7 7 6 6 7 7 8 10 9 10 10 10 9 9
11 13 16 19 18 18 17 15 14 12 10 9 8 5 3 2 2 6 10 10 10 8 4 2 2 4 6 7 8 8 9 9 7 7 8 9 8 11 11 12 12 11 11
11 12 16 19 19 19 17 15 14 13 12 10 8 7 6 4 4 3 10 10 8 6 4 3 4 6 7 9 9 10 10 10 8 7 8 9 9 12 14 15 14 13 13
13 11 15 19 20 19 17 15 14 13 12 10 9 8 6 4 3 2 9 10 7 5 4 4 6 8 9 10 10 11 10 10 11 8 8 10 13 15 16 17 16 15 15
12 10 10 15 17 18 17 15 14 13 12 11 9 7 7 5 3 2 6 7 5 4 4 5 8 9 10 10 11 12 11 11 11 10 11 11 14 16 17 17 17 17 17
10 12 10 12 13 14 14 15 14 12 12 13 10 9 8 6 5 3 5 6 6 6 7 8 10 11 11 12 13 14 14 13 12 12 12 13 17 17 17 17 18 18 17
10 10 11 10 10 12 12 12 13 12 13 14 12 10 8 5 5 6 8 9 10 10 10 11 11 12 12 12 14 15 14 11 11 11 12 16 19 18 18 18 18 18 18
13 13 11 12 11 10 10 10 10 10 12 12 10 8 6 5 6 8 10 12 12 11 11 12 12 12 12 10 13 13 10 12 10 10 12 17 20 20 21 21 21 21 21
12 12 13 12 11 9 6 7 7 8 9 10 10 8 6 4 4 4 4 6 8 8 7 9 9 9 8 7 7 8 9 9 9 10 12 17 19 20 21 22 22 22 22
10 11 12 13 10 9 6 5 5 5 5 5 8 8 6 3 1 1 1 2 2 3 3 4 4 6 7 8 7 6 7 6 7 8 11 14 17 19 20 21 22 22 22
13 13 11 12 12 9 8 6 4 4 4 5 7 9 8 4 3 2 3 5 5 6 5 4 4 5 6 6 7 7 6 8 9 10 11 15 18 19 20 21 21 22 22
12 13 11 11 11 11 8 6 5 4 5 5 5 6 7 6 4 5 6 5 6 8 7 6 5 6 6 6 8 7 6 7 8 10 11 14 17 18 19 20 21 22 22
8 10 11 12 11 11 9 7 6 5 7 6 8 11 12 12 10 6 7 7 5 8 8 7 7 5 7 8 8 8 7 6 7 8 10 12 13 16 21 23 23 25 26
8 9 10 11 11 11 9 8 6 7 9 9 11 13 15 14 13 8 7 5 7 9 6 6 6 6 6 7 7 7 7 6 6 7 8 10 11 13 16 21 24 24 24
8 9 9 11 12 11 10 10 10 9 9 9 11 11 13 14 14 10 6 5 8 6 6 6 5 4 5 7 7 6 7 4 4 6 6 7 9 12 12 16 21 21 22
6 8 9 12 12 14 12 11 11 10 8 7 8 10 13 13 14 11 5 6 6 6 6 5 5 4 3 6 6 7 6 3 3 8 8 7 8 12 13 14 16 17 22
7 9 10 14 14 14 12 10 9 7 6 6 6 11 13 13 13 9 4 6 5 5 5 5 4 5 4 5 4 5 5 4 4 9 6 9 9 14 17 17 17 16 17
8 9 11 12 13 13 10 7 6 6 6 5 5 8 12 12 11 9 6 6 5 5 7 7 5 3 3 4 4 4 5 6 6 8 5 8 9 12 11 14 14 12 13
9 10 11 12 12 13 12 11 10 7 5 4 5 5 7 11 11 10 7 5 6 6 5 5 5 4 3 3 4 4 4 4 8 4 5 5 8 8 8 7 8 10 12
9 10 12 12 13 13 12 12 13 8 6 5 4 4 6 9 10 10 8 7 5 4 4 4 4 3 3 4 3 3 1 4 4 6 6 6 8 8 9 9 8 7 12
10 10 11 12 12 11 10 11 11 7 5 5 6 7 6 6 7 8 8 5 4 3 3 4 5 5 4 3 3 3 3 3 4 5 11 9 9 7 8 8 7 7 11
9 10 10 11 10 9 11 10 11 10 10 9 8 6 5 4 4 5 5 4 3 3 4 4 5 5 5 4 4 4 4 4 6 6 10 13 10 8 8 7 7 8 7
Wind_Direction
171 172 171 170 170 161 150 145 140 132 130 128 121 128 127 120 117 114 115 104 89 73 43 14 15 26 46 72 104 117 125 102 47 15 332 299 287 269 253 232 200 282 248
160 168 164 163 165 162 152 148 143 137 135 135 135 138 136 130 129 130 125 106 86 71 37 16 8 13 29 37 52 124 184 209 29 333 300 294 290 275 257 200 203 235 267
155 165 164 166 168 163 154 152 149 145 143 144 149 154 157 159 146 142 135 116 101 84 57 26 3 357 2 355 354 323 301 267 256 273 288 297 286 269 250 221 234 240 255
158 164 167 170 169 164 157 157 155 154 154 157 159 151 158 175 176 166 156 148 150 144 123 61 356 340 320 308 299 302 307 306 246 258 280 290 290 268 235 226 239 246 247
159 167 170 172 170 166 163 162 161 161 163 167 168 153 152 173 196 188 174 169 167 163 157 162 328 324 320 314 305 300 289 283 249 261 280 293 290 275 237 240 249 252 252
164 169 172 172 172 169 167 167 168 169 171 173 176 168 138 63 321 214 192 181 172 166 173 203 288 303 301 298 294 291 285 283 258 264 285 293 287 278 266 253 250 253 255
168 172 173 172 170 169 171 172 174 179 180 176 176 172 142 80 39 155 181 182 178 181 201 245 297 313 310 300 295 287 282 283 271 261 273 282 285 284 278 270 260 258 262
165 167 174 172 167 170 174 176 179 186 185 177 177 175 158 123 65 119 172 177 189 214 246 277 294 302 303 300 297 294 292 283 273 264 263 271 278 281 278 277 273 266 266
159 161 166 169 169 173 176 178 184 190 181 171 172 171 165 163 147 133 172 181 205 236 265 284 286 286 287 287 286 285 286 282 268 263 267 267 273 276 274 272 274 271 265
163 168 168 169 171 172 175 181 184 181 173 168 167 169 175 190 206 207 195 209 226 241 259 270 272 273 276 279 280 279 279 279 267 260 260 265 271 274 276 275 274 274 272
179 180 175 176 176 175 176 184 179 176 175 173 177 187 186 201 231 235 227 228 228 238 253 262 266 270 276 279 279 280 285 273 264 261 259 264 271 276 279 277 277 277 276
190 190 182 182 182 178 182 178 175 174 179 181 189 201 200 213 230 221 221 224 231 245 262 274 280 284 284 279 279 282 277 273 268 261 262 271 280 284 283 285 283 279 275
194 187 188 187 184 176 172 166 173 178 185 194 200 205 206 216 239 221 232 256 266 279 287 293 299 300 298 291 288 289 284 281 271 266 268 278 289 296 299 300 296 290 284
197 192 182 186 182 174 163 162 167 176 185 200 212 212 186 173 196 266 287 299 306 304 300 314 330 349 359 357 344 329 324 322 308 293 287 295 308 316 316 313 309 304 297
195 194 177 173 171 161 155 152 153 160 175 185 179 176 160 136 122 88 58 47 33 31 32 28 20 16 14 3 360 353 342 343 344 343 333 330 333 334 331 328 326 319 311
194 187 170 161 157 151 149 144 135 134 147 142 129 128 116 105 93 77 59 44 36 38 46 46 29 25 14 5 359 351 341 343 345 345 346 351 352 355 4 4 4 4 358
180 169 163 156 147 144 141 133 123 115 111 92 82 79 81 83 85 82 67 51 33 37 41 41 27 24 20 8 351 342 339 341 343 346 359 5 0 2 4 8 13 12 10
136 145 159 156 143 138 132 121 108 97 97 93 87 82 81 82 85 78 66 49 42 44 36 36 24 14 12 358 338 326 326 336 342 356 359 358 360 5 3 15 13 6 5
134 133 140 143 139 127 113 106 101 97 93 94 90 86 82 80 80 78 66 49 49 44 33 30 26 21 4 347 323 315 316 337 354 360 351 358 3 3 1 4 4 0 2
133 131 133 135 125 118 112 109 103 93 88 85 87 87 85 79 77 75 64 49 51 49 34 25 14 4 0 338 318 315 307 338 26 7 5 2 3 3 358 360 0 354 355
120 125 132 132 130 126 126 123 118 109 99 87 81 82 80 77 73 68 58 47 45 54 43 28 10 357 348 342 339 321 324 339 18 8 1 360 360 357 352 357 349 349 351
122 121 124 129 131 130 131 125 119 116 102 87 82 73 76 75 71 69 62 55 44 44 35 27 21 5 348 6 360 347 344 335 345 330 339 358 355 347 337 343 333 343 350
127 131 133 132 131 128 127 122 116 98 88 84 81 74 71 76 72 70 66 63 50 47 33 17 16 27 355 347 18 56 6 320 317 302 341 330 340 325 325 319 322 332 342
136 133 133 135 133 134 134 136 134 133 134 140 128 105 78 73 72 69 64 58 48 39 26 1 16 10 21 4 0 44 233 254 302 310 311 311 310 313 304 313 313 313 329
133 130 131 131 132 133 128 129 125 120 119 116 110 103 85 68 68 67 64 56 42 27 11 4 6 13 20 12 351 331 323 288 245 276 301 308 310 304 297 296 296 306 308
125 124 127 128 129 129 126 124 127 128 126 123 123 118 103 81 58 52 56 48 31 13 359 353 355 1 359 351 336 324 314 301 305 296 301 307 302 293 284 283 285 292 294
Height
1500 1501 1502 1504 1507 1508 1508 1508 1508 1508 1508 1507 1507 1508 1509 1511 1512 1513 1513 1512 1511 1511 1511 1510 1510 1510 1510 1511 1511 1511 1510 1509 1508 1507 1506 1504 1504 1504 1505 1505 1505 1506 1507
1500 1501 1502 1503 1506 1507 1507 1507 1508 1508 1507 1506 1506 1506 1508 1510 1511 1512 1512 1512 1511 1510 1509 1509 1509 1509 1509 1510 1510 1509 1509 1508 1507 1505 1503 1503 1503 1503 1504 1504 1504 1505 1506
1500 1500 1502 1503 1506 1507 1507 1507 1507 1507 1506 1506 1505 1506 1507 1509 1510 1511 1512 1511 1510 1509 1508 1508 1508 1508 1509 1509 1509 1508 1507 1507 1505 1504 1503 1502 1502 1503 1503 1504 1504 1504 1504
1500 1500 1501 1503 1505 1506 1506 1507 1507 1507 1506 1505 1505 1506 1507 1508 1509 1510 1511 1510 1510 1509 1508 1507 1507 1507 1508 1508 1508 1507 1506 1506 1505 1504 1503 1502 1503 1502 1502 1503 1503 1502 1503
1500 1500 1501 1503 1504 1505 1506 1507 1507 1507 1506 1505 1505 1506 1507 1508 1509 1510 1510 1510 1510 1509 1508 1507 1507 1507 1507 1507 1507 1506 1505 1504 1503 1503 1503 1502 1502 1501 1501 1502 1502 1501 1501
1500 1501 1501 1502 1504 1505 1505 1506 1507 1507 1506 1505 1505 1506 1506 1507 1509 1510 1510 1510 1509 1509 1508 1507 1506 1506 1506 1505 1505 1504 1504 1503 1502 1502 1502 1501 1501 1500 1500 1500 1500 1499 1499
1500 1501 1501 1502 1503 1504 1505 1505 1506 1506 1506 1506 1506 1506 1506 1507 1509 1510 1510 1510 1509 1509 1508 1508 1507 1506 1505 1505 1504 1504 1503 1502 1501 1501 1500 1500 1499 1498 1498 1499 1499 1498 1497
1499 1500 1501 1501 1503 1504 1504 1505 1505 1505 1506 1506 1506 1506 1506 1507 1509 1510 1510 1510 1509 1508 1508 1507 1506 1506 1505 1505 1504 1503 1503 1501 1501 1500 1499 1498 1497 1496 1496 1496 1496 1495 1494
1498 1499 1500 1501 1502 1503 1503 1504 1505 1505 1505 1506 1506 1505 1505 1506 1508 1509 1509 1509 1508 1507 1507 1506 1506 1506 1505 1504 1503 1502 1501 1500 1500 1499 1497 1497 1496 1495 1494 1493 1493 1492 1492
1497 1498 1499 1500 1501 1501 1502 1503 1504 1504 1505 1505 1505 1505 1505 1505 1507 1508 1508 1508 1508 1507 1506 1506 1506 1505 1504 1502 1502 1501 1500 1499 1497 1496 1495 1494 1494 1492 1491 1490 1490 1490 1489
1495 1496 1498 1498 1499 1500 1501 1502 1502 1503 1504 1504 1504 1504 1504 1505 1506 1507 1507 1507 1507 1506 1505 1505 1504 1503 1502 1501 1500 1499 1498 1496 1495 1493 1492 1491 1490 1489 1487 1487 1487 1486 1485
1492 1494 1495 1497 1498 1499 1499 1500 1501 1501 1503 1503 1503 1503 1504 1505 1506 1507 1507 1506 1506 1505 1504 1504 1503 1501 1500 1498 1497 1496 1495 1493 1491 1490 1489 1487 1486 1484 1483 1483 1483 1482 1481
1491 1491 1492 1494 1495 1496 1497 1498 1499 1500 1501 1502 1502 1503 1503 1504 1506 1506 1506 1505 1504 1503 1503 1502 1501 1500 1498 1496 1495 1493 1491 1489 1488 1486 1485 1484 1482 1481 1479 1479 1478 1476 1475
1488 1489 1490 1491 1493 1494 1495 1496 1497 1498 1499 1500 1502 1502 1502 1503 1505 1505 1505 1504 1503 1502 1501 1500 1499 1497 1496 1494 1492 1490 1488 1486 1484 1482 1481 1480 1478 1476 1474 1473 1472 1471 1470
1484 1486 1486 1488 1489 1491 1493 1494 1496 1497 1498 1499 1500 1501 1501 1502 1503 1504 1503 1502 1501 1500 1499 1498 1497 1496 1494 1492 1489 1487 1485 1483 1481 1478 1477 1475 1473 1472 1470 1469 1467 1466 1465
1481 1482 1483 1485 1486 1488 1491 1493 1494 1495 1497 1498 1500 1500 1501 1502 1502 1502 1502 1501 1500 1499 1498 1497 1495 1493 1490 1488 1486 1484 1481 1479 1477 1474 1473 1471 1470 1468 1467 1466 1464 1462 1460
1477 1479 1480 1482 1484 1486 1489 1491 1492 1494 1496 1497 1498 1499 1499 1500 1501 1501 1501 1500 1499 1498 1496 1495 1493 1490 1487 1484 1481 1479 1477 1475 1472 1471 1469 1468 1466 1465 1463 1462 1459 1457 1455
1473 1475 1478 1479 1481 1484 1487 1488 1490 1492 1494 1496 1497 1498 1499 1499 1500 1501 1501 1500 1498 1496 1494 1491 1489 1486 1482 1479 1477 1475 1472 1470 1468 1467 1466 1465 1463 1461 1460 1458 1456 1453 1451
1469 1472 1475 1477 1479 1481 1484 1486 1488 1490 1492 1495 1496 1497 1498 1499 1500 1501 1500 1498 1496 1494 1491 1488 1485 1482 1478 1475 1473 1471 1469 1467 1465 1464 1463 1461 1459 1457 1455 1453 1451 1448 1446
1466 1468 1471 1474 1476 1478 1481 1484 1486 1489 1491 1494 1496 1497 1498 1499 1500 1500 1498 1496 1494 1491 1488 1485 1482 1479 1476 1472 1469 1467 1465 1464 1461 1460 1459 1457 1455 1452 1450 1448 1445 1443 1440
1462 1465 1468 1470 1472 1475 1479 1482 1484 1488 1491 1494 1495 1496 1497 1498 1498 1498 1496 1494 1492 1488 1485 1482 1479 1477 1473 1469 1465 1461 1460 1459 1457 1456 1454 1453 1450 1448 1446 1443 1439 1436 1433
1459 1462 1464 1467 1471 1474 1478 1481 1484 1487 1491 1494 1495 1495 1496 1496 1497 1496 1495 1492 1490 1487 1483 1480 1477 1474 1471 1467 1463 1459 1456 1453 1452 1452 1449 1447 1445 1443 1440 1436 1433 1430 1427
1458 1461 1464 1467 1471 1475 1478 1481 1483 1487 1490 1492 1494 1494 1495 1495 1495 1494 1492 1490 1488 1485 1481 1479 1475 1472 1469 1467 1464 1462 1459 1455 1448 1444 1442 1441 1439 1436 1434 1430 1427 1424 1421
1457 1461 1464 1468 1471 1475 1477 1479 1482 1485 1488 1491 1492 1493 1493 1493 1493 1492 1490 1488 1486 1483 1480 1477 1474 1471 1468 1465 1463 1462 1461 1458 1452 1442 1435 1434 1432 1429 1427 1424 1421 1418 1414
1456 1460 1464 1467 1471 1474 1477 1479 1483 1486 1488 1490 1491 1492 1492 1492 1491 1490 1488 1486 1483 1481 1478 1476 1473 1470 1467 1464 1461 1459 1456 1454 1451 1444 1433 1426 1424 1423 1420 1417 1414 1411 1407
1455 1459 1463 1466 1470 1473 1475 1479 1482 1484 1487 1488 1489 1490 1490 1490 1489 1488 1486 1483 1481 1478 1476 1473 1470 1468 1465 1462 1459 1455 1452 1448 1444 1438 1429 1421 1417 1415 1413 1411 1408 1404 1402